EW3662 Weather Reports


Display with metric or nautical units.
time (UTC)temp
F
wind
direction
speed
MPH
gust
MPH
rain 1hr
in
rain 24hr
in
rain mn
in
humidity
%
barometer
mb
20221126121530 23 114 0.0 0.0 0.00 0.00 0.00 80 1013.0
20221126121031 23 114 0.0 0.0 0.00 0.00 0.00 81 1013.1
20221126120529 23 114 0.0 0.0 0.00 0.00 0.00 81 1013.1
20221126120030 23 114 0.0 0.0 0.00 0.00 0.00 80 1013.1
20221126115529 23 114 0.0 0.0 0.00 0.00 0.00 81 1012.9
20221126115029 23 114 0.0 0.0 0.00 0.00 0.00 80 1012.9
20221126114529 23 114 0.0 0.0 0.00 0.00 0.00 81 1013.0
20221126114030 23 114 0.0 0.0 0.00 0.00 0.00 80 1013.1
20221126113527 24 114 0.0 0.0 0.00 0.00 0.00 80 1013.2
20221126113029 24 114 0.0 0.0 0.00 0.00 0.00 80 1013.4
20221126112525 24 114 0.0 0.0 0.00 0.00 0.00 79 1013.4
20221126112028 24 114 0.0 0.0 0.00 0.00 0.00 80 1013.4
20221126111525 24 114 0.0 0.0 0.00 0.00 0.00 80 1013.4
20221126111027 24 114 0.0 0.0 0.00 0.00 0.00 80 1013.5
20221126110523 24 114 0.0 0.0 0.00 0.00 0.00 80 1013.6
20221126110024 24 114 0.0 0.0 0.00 0.00 0.00 80 1013.6
20221126105525 24 114 0.0 0.0 0.00 0.00 0.00 80 1013.6
20221126105026 24 114 0.0 0.0 0.00 0.00 0.00 80 1013.6
20221126104523 24 114 0.0 0.0 0.00 0.00 0.00 79 1013.6
20221126104021 24 114 0.0 0.0 0.00 0.00 0.00 79 1013.6
20221126103752 24 114 0.0 0.0 0.00 0.00 0.00 79 1013.7
20221126103022 25 114 0.0 0.0 0.00 0.00 0.00 79 1013.7
20221126102522 25 114 0.0 0.0 0.00 0.00 0.00 79 1013.8
20221126102256 25 114 0.0 0.0 0.00 0.00 0.00 79 1014.1
20221126101521 25 114 0.0 0.0 0.00 0.00 0.00 80 1014.1
20221126101021 25 114 0.0 0.0 0.00 0.00 0.00 79 1014.1
20221126100521 25 114 0.0 0.0 0.00 0.00 0.00 78 1014.1
20221126100020 25 114 1.0 4.0 0.00 0.00 0.00 78 1014.2
20221126095521 25 114 2.0 4.0 0.00 0.00 0.00 78 1014.2
20221126095251 26 114 1.0 4.0 0.00 0.00 0.00 77 1014.3
20221126094522 26 114 0.0 0.0 0.00 0.00 0.00 77 1014.3
20221126094021 26 114 0.0 0.0 0.00 0.00 0.00 77 1014.5
20221126093522 26 114 0.0 0.0 0.00 0.00 0.00 76 1014.9
20221126093020 26 114 0.0 0.0 0.00 0.00 0.00 75 1014.9
20221126092518 27 114 0.0 0.0 0.00 0.00 0.00 75 1014.9
20221126092019 27 114 0.0 6.0 0.00 0.00 0.00 76 1014.9
20221126091517 27 114 1.0 6.0 0.00 0.00 0.00 76 1015.0
20221126091017 27 114 2.0 6.0 0.00 0.00 0.00 75 1015.0
20221126090515 27 114 3.0 6.0 0.00 0.00 0.00 75 1015.1
20221126090017 27 288 1.0 4.0 0.00 0.00 0.00 74 1015.0
20221126085516 27 288 0.0 4.0 0.00 0.00 0.00 74 1015.0
20221126085018 28 288 0.0 0.0 0.00 0.00 0.00 74 1015.2
20221126084516 28 288 0.0 0.0 0.00 0.00 0.00 74 1015.2
20221126084015 28 288 0.0 0.0 0.00 0.00 0.00 74 1015.2
20221126083514 28 288 0.0 0.0 0.00 0.00 0.00 74 1015.2
20221126083245 28 288 0.0 0.0 0.00 0.00 0.00 73 1015.3
20221126082515 28 288 0.0 0.0 0.00 0.00 0.00 74 1015.4
20221126082014 28 288 0.0 2.0 0.00 0.00 0.00 73 1015.4
20221126081512 28 288 0.0 3.0 0.00 0.00 0.00 73 1015.6
20221126081248 28 288 3.0 4.0 0.00 0.00 0.00 74 1015.7
20221126081011 28 288 1.0 4.0 0.00 0.00 0.00 73 1015.6
20221126080011 28 288 2.0 4.0 0.00 0.00 0.00 74 1015.8
20221126075509 28 288 0.0 4.0 0.00 0.00 0.00 75 1015.8
20221126075008 28 288 1.0 4.0 0.00 0.00 0.00 74 1015.8
20221126074509 28 288 3.0 5.0 0.00 0.00 0.00 74 1015.9
20221126074010 28 288 4.0 5.0 0.00 0.00 0.00 74 1015.9
20221126073509 28 286 3.0 5.0 0.00 0.00 0.00 74 1016.1
20221126073008 28 286 3.0 5.0 0.00 0.00 0.00 74 1016.2
20221126072508 28 286 1.0 4.0 0.00 0.00 0.00 75 1016.2
20221126072238 28 286 0.0 0.0 0.00 0.00 0.00 75 1016.4
20221126071507 28 286 0.0 1.0 0.00 0.00 0.00 74 1016.5
20221126071007 28 286 1.0 5.0 0.00 0.00 0.00 75 1016.7
20221126070507 28 286 3.0 5.0 0.00 0.00 0.00 75 1016.7
20221126070237 28 286 1.0 5.0 0.00 0.00 0.00 75 1016.7
20221126065506 29 286 1.0 4.0 0.00 0.00 0.00 74 1016.8
20221126065236 29 286 2.0 6.0 0.00 0.00 0.00 75 1016.9
20221126064735 29 286 2.0 6.0 0.00 0.00 0.00 75 1017.1
20221126064006 29 291 0.0 0.0 0.00 0.00 0.00 73 1017.2
20221126063504 29 291 0.0 0.0 0.00 0.00 0.00 73 1017.4
20221126063236 29 291 0.0 0.0 0.00 0.00 0.00 72 1017.5
20221126062510 29 291 0.0 0.0 0.00 0.00 0.00 71 1017.6
20221126062505 29 291 0.0 0.0 0.00 0.00 0.00 72 1017.5
20221126061737 29 291 2.0 7.0 0.00 0.00 0.00 71 1017.6
20221126061006 29 291 5.0 8.0 0.00 0.00 0.00 71 1017.6
20221126060504 29 289 5.0 8.0 0.00 0.00 0.00 72 1017.6
20221126060006 29 289 4.0 7.0 0.00 0.00 0.00 71 1017.8
20221126055504 29 292 3.0 5.0 0.00 0.00 0.00 71 1018.0
20221126055006 29 292 3.0 6.0 0.00 0.00 0.00 71 1018.1
20221126054506 29 294 1.0 6.0 0.00 0.00 0.00 71 1018.2
20221126054002 30 293 0.0 0.0 0.00 0.00 0.00 71 1018.3
20221126053503 30 293 0.0 0.0 0.00 0.00 0.00 70 1018.6
20221126053003 30 293 0.0 0.0 0.00 0.00 0.00 69 1018.7
20221126052503 30 293 0.0 2.0 0.00 0.00 0.00 69 1018.7
20221126052002 30 293 0.0 2.0 0.00 0.00 0.00 69 1018.6
20221126051504 30 293 1.0 5.0 0.00 0.00 0.00 69 1018.7
20221126051002 30 293 3.0 7.0 0.00 0.00 0.00 69 1018.7
20221126050502 30 294 4.0 7.0 0.00 0.00 0.00 69 1018.7
20221126050004 30 300 3.0 6.0 0.00 0.00 0.00 69 1018.8
20221126045501 31 306 1.0 4.0 0.00 0.00 0.00 69 1018.9
20221126045000 31 306 0.0 0.0 0.00 0.00 0.00 68 1019.0
20221126044729 31 306 0.0 3.0 0.00 0.00 0.00 67 1019.1
20221126043959 31 306 1.0 6.0 0.00 0.00 0.00 67 1019.1
20221126043458 31 306 3.0 6.0 0.00 0.00 0.00 67 1019.1
20221126042958 32 308 3.0 6.0 0.00 0.00 0.00 67 1019.3
20221126042729 32 311 2.0 6.0 0.00 0.00 0.00 66 1019.4
20221126042228 32 311 1.0 5.0 0.00 0.00 0.00 66 1019.4
20221126041454 32 302 2.0 6.0 0.00 0.00 0.00 66 1019.5
20221126040954 32 298 3.0 7.0 0.00 0.00 0.00 66 1019.4
20221126040500 33 293 4.0 6.0 0.00 0.00 0.00 66 1019.4
20221126040454 33 300 4.0 7.0 0.00 0.00 0.00 66 1019.4
20221126035455 33 295 3.0 6.0 0.00 0.00 0.00 66 1019.5
20221126034953 33 298 2.0 5.0 0.00 0.00 0.00 66 1019.5
20221126034455 33 269 0.0 4.0 0.00 0.00 0.00 67 1019.5
20221126033952 33 265 1.0 4.0 0.00 0.00 0.00 66 1019.6
20221126033724 33 265 1.0 4.0 0.00 0.00 0.00 66 1019.7
20221126032953 33 221 0.0 0.0 0.00 0.00 0.00 65 1019.6
20221126032452 33 175 0.0 0.0 0.00 0.00 0.00 65 1019.7
20221126032223 33 175 0.0 0.0 0.00 0.00 0.00 64 1019.8
20221126031453 33 175 0.0 0.0 0.00 0.00 0.00 64 1019.8
20221126030952 33 175 0.0 0.0 0.00 0.00 0.00 65 1019.8
20221126030450 34 175 0.0 0.0 0.00 0.00 0.00 62 1019.9
20221126030219 34 175 0.0 0.0 0.00 0.00 0.00 62 1019.9
20221126025449 34 175 0.0 0.0 0.00 0.00 0.00 62 1019.9
20221126025217 34 175 0.0 0.0 0.00 0.00 0.00 61 1020.1
20221126025103 35 175 0.0 0.0 0.00 0.00 0.00 60 1020.2
20221126023944 35 174 0.0 0.0 0.00 0.00 0.00 60 1020.2
20221126023445 35 174 0.0 0.0 0.00 0.00 0.00 63 1020.2
20221126022946 36 174 0.0 0.0 0.00 0.00 0.00 57 1020.3
20221126022446 36 174 0.0 0.0 0.00 0.00 0.00 57 1020.3
20221126021945 37 174 0.0 0.0 0.00 0.00 0.00 57 1020.4
20221126021445 37 174 0.0 0.0 0.00 0.00 0.00 55 1020.4
20221126021224 38 174 0.0 0.0 0.00 0.00 0.00 55 1020.4
20221126020946 37 174 0.0 0.0 0.00 0.00 0.00 56 1020.4
20221126015943 38 174 0.0 0.0 0.00 0.00 0.00 54 1020.5
20221126015713 38 174 0.0 0.0 0.00 0.00 0.00 53 1020.5
20221126014943 39 174 0.0 0.0 0.00 0.00 0.00 52 1020.5
20221126014442 39 174 0.0 0.0 0.00 0.00 0.00 52 1020.6
20221126013943 40 174 0.0 0.0 0.00 0.00 0.00 51 1020.8
20221126013443 40 174 0.0 0.0 0.00 0.00 0.00 52 1020.8
20221126012944 41 174 0.0 0.0 0.00 0.00 0.00 48 1020.8
20221126012714 41 174 0.0 0.0 0.00 0.00 0.00 47 1020.8
20221126011942 42 174 0.0 0.0 0.00 0.00 0.00 47 1020.9
20221126011442 42 174 0.0 0.0 0.00 0.00 0.00 45 1020.9
20221126010940 43 174 0.0 0.0 0.00 0.00 0.00 45 1020.9
20221126010443 44 174 0.0 0.0 0.00 0.00 0.00 44 1020.9
20221126005940 44 174 0.0 0.0 0.00 0.00 0.00 44 1020.9
20221126005712 45 174 0.0 0.0 0.00 0.00 0.00 42 1020.9
20221126004938 46 174 0.0 0.0 0.00 0.00 0.00 41 1020.9
20221126004436 46 174 0.0 0.0 0.00 0.00 0.00 40 1020.9
20221126003938 47 174 0.0 0.0 0.00 0.00 0.00 39 1020.9
20221126003439 48 174 0.0 0.0 0.00 0.00 0.00 39 1021.0
20221126003207 49 174 0.0 0.0 0.00 0.00 0.00 38 1021.0
20221126002709 49 174 0.0 0.0 0.00 0.00 0.00 36 1021.1
20221126001937 50 174 0.0 0.0 0.00 0.00 0.00 36 1021.1
20221126001436 51 174 0.0 0.0 0.00 0.00 0.00 35 1021.2
20221126000934 52 174 0.0 0.0 0.00 0.00 0.00 34 1021.1
20221126000435 52 174 0.0 0.0 0.00 0.00 0.00 34 1021.2
20221125235934 53 174 0.0 0.0 0.00 0.00 0.00 33 1021.2
20221125235434 53 174 0.0 0.0 0.00 0.00 0.00 33 1021.2
20221125235204 53 174 0.0 0.0 0.00 0.00 0.00 32 1021.2
20221125234433 54 174 0.0 0.0 0.00 0.00 0.00 31 1021.3
20221125233932 54 174 0.0 0.0 0.00 0.00 0.00 31 1021.3
20221125233429 55 174 0.0 0.0 0.00 0.00 0.00 31 1021.3
20221125232927 55 174 0.0 0.0 0.00 0.00 0.00 30 1021.3
20221125232424 55 174 0.0 0.0 0.00 0.00 0.00 30 1021.3
20221125231926 56 174 0.0 0.0 0.00 0.00 0.00 30 1021.3
20221125231425 56 174 0.0 0.0 0.00 0.00 0.00 29 1021.3
20221125230924 57 174 0.0 0.0 0.00 0.00 0.00 29 1021.4
20221125230652 57 174 0.0 2.0 0.00 0.00 0.00 29 1021.4
20221125225921 57 174 2.0 6.0 0.00 0.00 0.00 28 1021.4
20221125225422 58 176 2.0 7.0 0.00 0.00 0.00 28 1021.4
20221125224918 58 163 2.0 7.0 0.00 0.00 0.00 28 1021.4
20221125224419 58 177 2.0 7.0 0.00 0.00 0.00 28 1021.6
20221125223913 58 174 2.0 6.0 0.00 0.00 0.00 28 1021.6
20221125223644 59 167 2.0 6.0 0.00 0.00 0.00 28 1021.6
20221125222912 59 173 3.0 6.0 0.00 0.00 0.00 28 1021.7
20221125222413 59 169 3.0 6.0 0.00 0.00 0.00 28 1021.8
20221125221912 59 177 3.0 8.0 0.00 0.00 0.00 27 1021.7
20221125221411 59 165 4.0 8.0 0.00 0.00 0.00 27 1021.8
20221125220912 59 153 4.0 8.0 0.00 0.00 0.00 27 1021.9
20221125220412 60 150 4.0 8.0 0.00 0.00 0.00 27 1021.9
20221125220141 60 147 4.0 8.0 0.00 0.00 0.00 27 1021.9
20221125215412 60 146 4.0 7.0 0.00 0.00 0.00 27 1021.9
20221125214911 60 157 3.0 7.0 0.00 0.00 0.00 27 1021.9
20221125214411 60 146 3.0 8.0 0.00 0.00 0.00 27 1022.0
20221125213910 60 165 4.0 8.0 0.00 0.00 0.00 28 1021.9
20221125213412 60 137 3.0 7.0 0.00 0.00 0.00 27 1022.0
20221125212910 60 159 2.0 6.0 0.00 0.00 0.00 26 1022.0
20221125212409 60 153 3.0 7.0 0.00 0.00 0.00 26 1022.1
20221125211909 60 157 3.0 7.0 0.00 0.00 0.00 26 1022.3
20221125211409 60 155 2.0 7.0 0.00 0.00 0.00 26 1022.3
20221125210908 61 164 2.0 5.0 0.00 0.00 0.00 26 1022.4
20221125210408 61 220 1.0 5.0 0.00 0.00 0.00 27 1022.5
20221125205909 60 194 1.0 6.0 0.00 0.00 0.00 27 1022.6
20221125205408 60 196 2.0 6.0 0.00 0.00 0.00 27 1022.7
20221125204907 60 203 2.0 7.0 0.00 0.00 0.00 27 1022.7
20221125204407 60 202 3.0 7.0 0.00 0.00 0.00 27 1022.8
20221125203907 60 231 3.0 7.0 0.00 0.00 0.00 28 1022.9
20221125203406 60 242 2.0 7.0 0.00 0.00 0.00 27 1022.9
20221125202906 60 247 3.0 7.0 0.00 0.00 0.00 28 1023.1
20221125202637 60 192 3.0 7.0 0.00 0.00 0.00 28 1023.2
20221125201906 60 206 3.0 7.0 0.00 0.00 0.00 28 1023.3
20221125201636 60 205 3.0 7.0 0.00 0.00 0.00 27 1023.3
20221125200905 60 208 3.0 7.0 0.00 0.00 0.00 29 1023.3
20221125200405 60 223 3.0 7.0 0.00 0.00 0.00 28 1023.5
20221125195906 60 175 3.0 8.0 0.00 0.00 0.00 28 1023.5
20221125195405 60 179 2.0 8.0 0.00 0.00 0.00 28 1023.6
20221125194903 60 176 1.0 6.0 0.00 0.00 0.00 28 1023.8
20221125194406 60 167 1.0 6.0 0.00 0.00 0.00 27 1023.9
20221125193904 60 155 0.0 6.0 0.00 0.00 0.00 27 1023.9
20221125193406 59 207 0.0 0.0 0.00 0.00 0.00 28 1024.0
20221125193137 59 229 0.0 0.0 0.00 0.00 0.00 29 1024.1
20221125192405 58 229 0.0 0.0 0.00 0.00 0.00 28 1024.2
20221125191903 58 229 0.0 0.0 0.00 0.00 0.00 28 1024.3
20221125191403 58 229 0.0 1.0 0.00 0.00 0.00 29 1024.4
20221125190904 58 229 0.0 3.0 0.00 0.00 0.00 29 1024.7
20221125190401 57 230 0.0 3.0 0.00 0.00 0.00 29 1024.8
20221125185903 57 234 0.0 0.0 0.00 0.00 0.00 30 1024.9
20221125185403 57 234 0.0 0.0 0.00 0.00 0.00 30 1024.9
20221125185134 56 234 0.0 0.0 0.00 0.00 0.00 30 1024.9
20221125184401 56 234 0.0 0.0 0.00 0.00 0.00 30 1025.0
20221125183901 56 237 0.0 0.0 0.00 0.00 0.00 32 1025.3
20221125183401 56 237 0.0 0.0 0.00 0.00 0.00 32 1025.4
20221125182900 55 236 0.0 0.0 0.00 0.00 0.00 31 1025.5
20221125182401 55 238 0.0 0.0 0.00 0.00 0.00 34 1025.6
20221125182132 54 238 0.0 0.0 0.00 0.00 0.00 34 1025.8
20221125181401 53 238 0.0 0.0 0.00 0.00 0.00 36 1025.8
20221125180901 52 237 0.0 0.0 0.00 0.00 0.00 36 1026.1
20221125180400 52 236 0.0 0.0 0.00 0.00 0.00 36 1026.2
20221125175903 52 236 0.0 0.0 0.00 0.00 0.00 36 1026.3
20221125175401 51 281 0.0 0.0 0.00 0.00 0.00 36 1026.4
20221125174857 50 281 0.0 0.0 0.00 0.00 0.00 37 1026.5
20221125174358 50 287 0.0 0.0 0.00 0.00 0.00 38 1026.6
20221125173859 49 290 0.0 0.0 0.00 0.00 0.00 41 1026.8
20221125173358 48 292 1.0 5.0 0.00 0.00 0.00 40 1027.0
20221125172858 47 293 2.0 5.0 0.00 0.00 0.00 42 1027.0
20221125172358 47 281 1.0 5.0 0.00 0.00 0.00 43 1027.2
20221125171857 45 298 0.0 0.0 0.00 0.00 0.00 47 1027.3
20221125171357 44 298 0.0 0.0 0.00 0.00 0.00 50 1027.4
20221125170856 43 298 0.0 0.0 0.00 0.00 0.00 51 1027.6
20221125170356 41 298 0.0 0.0 0.00 0.00 0.00 58 1027.7
20221125165856 40 298 0.0 0.0 0.00 0.00 0.00 58 1027.8
20221125165358 38 298 0.0 0.0 0.00 0.00 0.00 64 1028.0
20221125164901 33 298 0.0 0.0 0.00 0.00 0.00 70 1028.0
20221125164856 36 298 0.0 0.0 0.00 0.00 0.00 68 1028.0
20221125163856 31 298 0.0 0.0 0.00 0.00 0.00 73 1028.0
20221125163357 30 298 0.0 0.0 0.00 0.00 0.00 76 1028.1
20221125162857 29 298 0.0 0.0 0.00 0.00 0.00 76 1028.3
20221125162355 28 298 0.0 0.0 0.00 0.00 0.00 78 1028.3
20221125161855 27 298 0.0 4.0 0.00 0.00 0.00 79 1028.3
20221125161355 27 298 0.0 4.0 0.00 0.00 0.00 81 1028.3
20221125160856 26 298 0.0 4.0 0.00 0.00 0.00 82 1028.3
20221125160353 25 298 0.0 4.0 0.00 0.00 0.00 83 1028.3
20221125155855 25 298 0.0 0.0 0.00 0.00 0.00 83 1028.3
20221125155354 25 298 0.0 3.0 0.00 0.00 0.00 84 1028.4
20221125154853 24 298 0.0 3.0 0.00 0.00 0.00 84 1028.4
20221125154353 24 298 0.0 0.0 0.00 0.00 0.00 85 1028.5
20221125153855 23 298 0.0 0.0 0.00 0.00 0.00 86 1028.5
20221125153356 23 298 0.0 2.0 0.00 0.00 0.00 86 1028.5
20221125152854 23 298 0.0 2.0 0.00 0.00 0.00 86 1028.5
20221125152354 22 298 0.0 1.0 0.00 0.00 0.00 87 1028.6
20221125152131 22 298 0.0 3.0 0.00 0.00 0.00 87 1028.6
20221125151855 22 298 0.0 1.0 0.00 0.00 0.00 87 1028.6
20221125150854 22 298 0.0 3.0 0.00 0.00 0.00 87 1028.6
20221125150353 22 298 0.0 0.0 0.00 0.00 0.00 86 1028.5
20221125145854 21 298 0.0 0.0 0.00 0.00 0.00 86 1028.5
20221125145623 21 298 0.0 0.0 0.00 0.00 0.00 85 1028.5
20221125144853 21 298 0.0 0.0 0.00 0.00 0.00 85 1028.5
20221125144353 21 298 0.0 0.0 0.00 0.00 0.00 85 1028.5
20221125144129 20 298 0.0 0.0 0.00 0.00 0.00 83 1028.5
20221125143853 20 298 0.0 0.0 0.00 0.00 0.00 83 1028.5
20221125142850 20 298 0.0 0.0 0.00 0.00 0.00 83 1028.6
20221125142350 20 298 0.0 0.0 0.00 0.00 0.00 83 1028.7
20221125141852 20 298 0.0 0.0 0.00 0.00 0.00 83 1028.7
20221125141350 20 298 0.0 0.0 0.00 0.00 0.00 83 1028.6
20221125140848 20 298 0.0 0.0 0.00 0.00 0.00 83 1028.6
20221125140349 21 298 0.0 0.0 0.00 0.00 0.00 83 1028.6
20221125135848 20 298 0.0 0.0 0.00 0.00 0.00 83 1028.7
20221125135349 20 298 0.0 0.0 0.00 0.00 0.00 83 1028.7
20221125134847 20 298 0.0 2.0 0.00 0.00 0.00 84 1028.6
20221125134346 20 298 0.0 2.0 0.00 0.00 0.00 84 1028.7
20221125133846 20 298 0.0 2.0 0.00 0.00 0.00 84 1028.6
20221125133346 20 298 0.0 2.0 0.00 0.00 0.00 84 1028.6
20221125132845 20 298 0.0 0.0 0.00 0.00 0.00 84 1028.7
20221125132348 20 298 0.0 0.0 0.00 0.00 0.00 84 1028.6
20221125131847 20 298 0.0 0.0 0.00 0.00 0.00 84 1028.6
20221125131346 20 298 0.0 1.0 0.00 0.00 0.00 84 1028.6
20221125130846 20 298 1.0 3.0 0.00 0.00 0.00 84 1028.5
20221125130345 20 298 1.0 3.0 0.00 0.00 0.00 84 1028.6
20221125130115 20 298 0.0 2.0 0.00 0.00 0.00 85 1028.5
20221125125343 21 298 0.0 0.0 0.00 0.00 0.00 85 1028.5
20221125125117 21 298 1.0 3.0 0.00 0.00 0.00 86 1028.5
20221125124345 21 298 1.0 3.0 0.00 0.00 0.00 86 1028.5
20221125123844 21 298 1.0 4.0 0.00 0.00 0.00 85 1028.6
20221125123345 20 298 1.0 4.0 0.00 0.00 0.00 85 1028.6
20221125122844 20 298 0.0 0.0 0.00 0.00 0.00 85 1028.6
20221125122345 20 298 0.0 0.0 0.00 0.00 0.00 84 1028.7
20221125121843 20 298 0.0 0.0 0.00 0.00 0.00 84 1028.7